When you browse on this site, cookies collect data to enhance your experience and personalize the content and advertising you see.
Visit our Privacy Policy to learn more. By continuing to use the site, you agree to this use of cookies and data.

Hourly Weather Angahuan

Today, 9 July, Thursday

Time Temperature Precipitation Wind Pressure Humidity
00:00 +11°C° 0 mm 1 mps 548 mmHg 88%
01:00 +11°C° 0 mm 1 mps 548 mmHg 88%
02:00 +10°C° 0 mm 1 mps 547 mmHg 88%
03:00 +10°C° 0 mm 1 mps 547 mmHg 88%
04:00 +10°C° 0 mm 1 mps 547 mmHg 87%
05:00 +10°C° 0 mm 1 mps 547 mmHg 87%
06:00 +12°C° 0 mm 1 mps 548 mmHg 80%
07:00 +14°C° 0 mm 1 mps 549 mmHg 74%
08:00 +15°C° 0 mm 1 mps 550 mmHg 67%
09:00 +16°C° 0.5 mm 1 mps 551 mmHg 68%
10:00 +16°C° 0.5 mm 1 mps 551 mmHg 70%
11:00 +18°C° 0.5 mm 1 mps 551 mmHg 71%
12:00 +15°C° 2.1 mm 1 mps 550 mmHg 78%
13:00 +14°C° 2.1 mm 1 mps 549 mmHg 84%
14:00 +11°C° 2.1 mm 0 mps 548 mmHg 91%
15:00 +12°C° 1.5 mm 1 mps 547 mmHg 91%
16:00 +12°C° 1.5 mm 1 mps 547 mmHg 91%
17:00 +11°C° 1.5 mm 1 mps 547 mmHg 91%
18:00 +11°C° 0.1 mm 1 mps 547 mmHg 90%
19:00 +11°C° 0.1 mm 1 mps 548 mmHg 89%
20:00 +11°C° 0.1 mm 1 mps 548 mmHg 88%
21:00 +11°C° 0.2 mm 1 mps 548 mmHg 88%
22:00 +10°C° 0.2 mm 1 mps 548 mmHg 88%
23:00 +10°C° 0.2 mm 1 mps 549 mmHg 88%

Tomorrow, 10 July, Friday

Time Temperature Precipitation Wind Pressure Humidity
00:00 +10°C° 0.1 mm 1 mps 548 mmHg 87%
01:00 +10°C° 0.1 mm 1 mps 548 mmHg 86%
02:00 +9°C° 0.1 mm 2 mps 547 mmHg 85%
03:00 +9°C° 0 mm 2 mps 547 mmHg 84%
04:00 +9°C° 0 mm 2 mps 547 mmHg 83%
05:00 +9°C° 0 mm 2 mps 547 mmHg 83%
06:00 +11°C° 0 mm 1 mps 548 mmHg 80%
07:00 +13°C° 0 mm 1 mps 549 mmHg 77%
08:00 +14°C° 0 mm 1 mps 550 mmHg 73%
09:00 +16°C° 0.1 mm 1 mps 551 mmHg 64%
10:00 +20°C° 0.1 mm 1 mps 552 mmHg 55%
11:00 +22°C° 0.1 mm 1 mps 553 mmHg 45%
12:00 +21°C° 0.3 mm 1 mps 553 mmHg 49%
13:00 +21°C° 0.3 mm 1 mps 552 mmHg 53%
14:00 +19°C° 0.3 mm 2 mps 551 mmHg 57%
15:00 +19°C° 0.5 mm 1 mps 550 mmHg 64%
16:00 +18°C° 0.5 mm 1 mps 549 mmHg 71%
17:00 +16°C° 0.5 mm 1 mps 548 mmHg 77%
18:00 +14°C° 0.3 mm 1 mps 548 mmHg 80%
19:00 +13°C° 0.3 mm 2 mps 547 mmHg 83%
20:00 +10°C° 0.3 mm 2 mps 547 mmHg 85%
21:00 +10°C° 0 mm 2 mps 547 mmHg 83%
22:00 +10°C° 0 mm 2 mps 547 mmHg 81%
23:00 +9°C° 0 mm 2 mps 547 mmHg 79%

Day after tomorrow, 11 July, Saturday

Time Temperature Precipitation Wind Pressure Humidity
00:00 +9°C° 0 mm 2 mps 547 mmHg 79%
01:00 +9°C° 0 mm 2 mps 547 mmHg 78%
02:00 +9°C° 0 mm 2 mps 546 mmHg 78%
03:00 +9°C° 0 mm 2 mps 546 mmHg 79%
04:00 +9°C° 0 mm 2 mps 546 mmHg 80%
05:00 +8°C° 0 mm 2 mps 546 mmHg 80%
06:00 +12°C° 0 mm 1 mps 548 mmHg 75%
07:00 +14°C° 0 mm 1 mps 549 mmHg 70%
08:00 +16°C° 0 mm 1 mps 550 mmHg 65%
09:00 +18°C° 0.1 mm 1 mps 551 mmHg 61%
10:00 +20°C° 0.1 mm 1 mps 552 mmHg 57%
11:00 +20°C° 0.1 mm 2 mps 553 mmHg 53%
12:00 +20°C° 0.9 mm 1 mps 552 mmHg 59%
13:00 +20°C° 0.9 mm 1 mps 551 mmHg 64%
14:00 +19°C° 0.9 mm 1 mps 550 mmHg 70%
15:00 +18°C° 0.6 mm 1 mps 549 mmHg 74%
16:00 +18°C° 0.6 mm 1 mps 549 mmHg 77%
17:00 +16°C° 0.6 mm 1 mps 548 mmHg 81%
18:00 +15°C° 0.2 mm 1 mps 548 mmHg 83%
19:00 +14°C° 0.2 mm 1 mps 548 mmHg 84%
20:00 +12°C° 0.2 mm 1 mps 548 mmHg 86%
21:00 +12°C° 0.4 mm 1 mps 548 mmHg 86%
22:00 +12°C° 0.4 mm 1 mps 548 mmHg 86%
23:00 +11°C° 0.4 mm 1 mps 548 mmHg 86%

12 July, Sunday

Time Temperature Precipitation Wind Pressure Humidity
00:00 +11°C° 0.4 mm 1 mps 548 mmHg 87%
01:00 +11°C° 0.4 mm 1 mps 547 mmHg 88%
02:00 +10°C° 0.4 mm 1 mps 547 mmHg 89%
03:00 +10°C° 0.1 mm 1 mps 547 mmHg 90%
04:00 +10°C° 0.1 mm 1 mps 547 mmHg 91%
05:00 +8°C° 0.1 mm 0 mps 547 mmHg 91%
06:00 +10°C° 0.2 mm 0 mps 548 mmHg 87%
07:00 +12°C° 0.2 mm 0 mps 549 mmHg 82%
08:00 +14°C° 0.2 mm 0 mps 551 mmHg 78%
09:00 +16°C° 1.1 mm 1 mps 551 mmHg 76%
10:00 +18°C° 1.1 mm 1 mps 551 mmHg 74%
11:00 +19°C° 1.1 mm 1 mps 551 mmHg 73%
12:00 +19°C° 1.9 mm 1 mps 551 mmHg 73%
13:00 +19°C° 1.9 mm 1 mps 550 mmHg 73%
14:00 +19°C° 1.9 mm 1 mps 549 mmHg 74%
15:00 +18°C° 1.4 mm 1 mps 549 mmHg 76%
16:00 +16°C° 1.4 mm 1 mps 548 mmHg 79%
17:00 +16°C° 1.4 mm 1 mps 548 mmHg 82%
18:00 +14°C° 1.3 mm 1 mps 548 mmHg 85%
19:00 +12°C° 1.3 mm 1 mps 547 mmHg 87%
20:00 +11°C° 1.3 mm 1 mps 547 mmHg 90%
21:00 +11°C° 0.6 mm 1 mps 547 mmHg 90%
22:00 +10°C° 0.6 mm 1 mps 548 mmHg 89%
23:00 +10°C° 0.6 mm 1 mps 548 mmHg 89%

13 July, Monday

Time Temperature Precipitation Wind Pressure Humidity
00:00 +10°C° 0.1 mm 1 mps 547 mmHg 89%
01:00 +9°C° 0.1 mm 1 mps 547 mmHg 88%
02:00 +8°C° 0.1 mm 0 mps 546 mmHg 88%
03:00 +9°C° 0.1 mm 1 mps 546 mmHg 88%
04:00 +9°C° 0.1 mm 1 mps 547 mmHg 89%
05:00 +9°C° 0.1 mm 1 mps 547 mmHg 89%
06:00 +10°C° 0.1 mm 0 mps 548 mmHg 85%
07:00 +12°C° 0.1 mm 0 mps 549 mmHg 81%
08:00 +14°C° 0.1 mm 0 mps 551 mmHg 76%
09:00 +16°C° 0.5 mm 1 mps 551 mmHg 73%
10:00 +18°C° 0.5 mm 1 mps 551 mmHg 71%
11:00 +19°C° 0.5 mm 1 mps 552 mmHg 68%
12:00 +19°C° 1.5 mm 1 mps 551 mmHg 71%
13:00 +19°C° 1.5 mm 1 mps 550 mmHg 74%
14:00 +19°C° 1.5 mm 1 mps 550 mmHg 77%
15:00 +18°C° 1.3 mm 1 mps 549 mmHg 79%
16:00 +16°C° 1.3 mm 1 mps 549 mmHg 82%
17:00 +15°C° 1.3 mm 1 mps 548 mmHg 85%
18:00 +14°C° 0.6 mm 1 mps 548 mmHg 86%
19:00 +13°C° 0.6 mm 1 mps 547 mmHg 87%
20:00 +11°C° 0.6 mm 1 mps 547 mmHg 88%
21:00 +11°C° 0.1 mm 1 mps 547 mmHg 88%
22:00 +11°C° 0.1 mm 1 mps 547 mmHg 88%
23:00 +10°C° 0.1 mm 1 mps 547 mmHg 88%

14 July, Tuesday

Time Temperature Precipitation Wind Pressure Humidity
00:00 +10°C° 0.2 mm 1 mps 547 mmHg 89%
01:00 +10°C° 0.2 mm 1 mps 547 mmHg 89%
02:00 +10°C° 0.2 mm 1 mps 547 mmHg 89%
03:00 +9°C° 0.1 mm 1 mps 547 mmHg 89%
04:00 +9°C° 0.1 mm 1 mps 547 mmHg 90%
05:00 +8°C° 0.1 mm 0 mps 547 mmHg 90%
06:00 +10°C° 0 mm 0 mps 548 mmHg 86%
07:00 +12°C° 0 mm 0 mps 549 mmHg 82%
08:00 +14°C° 0 mm 0 mps 550 mmHg 78%
09:00 +16°C° 0.7 mm 1 mps 551 mmHg 76%
10:00 +18°C° 0.7 mm 1 mps 551 mmHg 74%
11:00 +19°C° 0.7 mm 1 mps 551 mmHg 72%
12:00 +19°C° 1.4 mm 1 mps 551 mmHg 72%
13:00 +20°C° 1.4 mm 1 mps 550 mmHg 71%
14:00 +18°C° 1.4 mm 0 mps 550 mmHg 70%
15:00 +19°C° 1.6 mm 1 mps 549 mmHg 75%
16:00 +18°C° 1.6 mm 1 mps 549 mmHg 80%
17:00 +16°C° 1.6 mm 1 mps 548 mmHg 84%
18:00 +14°C° 0.5 mm 1 mps 547 mmHg 86%
19:00 +13°C° 0.5 mm 1 mps 547 mmHg 88%
20:00 +12°C° 0.5 mm 1 mps 546 mmHg 89%
21:00 +12°C° 0 mm 1 mps 547 mmHg 89%
22:00 +11°C° 0 mm 1 mps 547 mmHg 88%
23:00 +11°C° 0 mm 1 mps 547 mmHg 87%
Show more